Notices

What's New in latest Release from April 7th, 2021:

- Updated Glossary, including Speed of Maximum Gust, and Total Hourly Precipitation

- Updated national and regional climate services offices contacts and prices information

- Addition of station inventory lists for 1981-2010, 1971-2000, and 1961-1990 Normals.

If you haven't already, please take our survey and provide feedback about our website: https://eccc.sondage-survey.ca/f/LanguageSelection.aspx?s=442ca660-fcf1-47c0-95a9-59707d6fd709

Hourly Data Report for December 23, 2018

CARBERRY CS
MANITOBA
Current Station Operator: ECCC - MSC

49°54'20.900" N
99°21'26.800" W
383.50 m
5010547
71170
WZE

Download Data

Hourly Data (December 2018)
Hourly Data Report for December 23, 2018
TIME
LST
Temp Definition
°C
Dew Point Definition
°C
Rel Hum Definition
%
Precip. Amount Definition
mm

Wind Dir Definition
10's deg

Wind Spd Definition
km/h
Visibility Definition
km
Stn Press Definition
kPa
Hmdx Definition


Wind Chill Definition


Weather Definition


00:00 -9.2 -12.4 77 0.0 29 25   96.88   -18 LegendNANA
01:00 -9.6 -12.6 79 0.0 28 21   96.90   -18 LegendNANA
02:00 -9.8 -13.3 75 0.0 30 19   96.93   -17 LegendNANA
03:00 -9.9 -13.3 76 0.0 30 19   96.99   -18 LegendNANA
04:00 -10.2 -13.5 77 0.0 30 22   97.03   -18 LegendNANA
05:00 -10.5 -13.6 78 0.0 30 20   97.03   -18 LegendNANA
06:00 -10.8 -13.8 78 0.0 30 19   97.05   -19 LegendNANA
07:00 -11.8 -14.9 78 0.0 29 15   97.09   -19 LegendNANA
08:00 -12.9 -16.0 78 0.0 28 16   97.13   -21 LegendNANA
09:00 -12.4 -16.0 74 0.0 29 20   97.17   -21 LegendNANA
10:00 -13.1 -16.5 75 0.0 29 15   97.20   -21 LegendNANA
11:00 -14.3 -18.4 71 0.3 30 8   97.22   -20 LegendNANA
12:00 -13.2 -17.4 71 0.0 29 16   97.23   -21 LegendNANA
13:00 -11.9 -16.2 70 0.0 29 13   97.19   -19 LegendNANA
14:00 -10.3 -14.2 73 0.0 29 13   97.19   -17 LegendNANA
15:00 -9.3 -13.7 70 0.0 29 12   97.17   -15 LegendNANA
16:00 -11.6 -14.7 78 0.0 27 6   97.22   -15 LegendNANA
17:00 -9.6 -13.3 74 0.0 31 13   97.26   -16 LegendNANA
18:00 -9.7 -12.7 78 0.0 29 9   97.28   -15 LegendNANA
19:00 -9.6 -12.8 77 0.0 32 6   97.27   -13 LegendNANA
20:00 -9.6 -13.2 75 0.0 34 5   97.31   -12 LegendNANA
21:00 -10.0 -13.4 76 0.0 4 7   97.28   -14 LegendNANA
22:00 -10.2 -13.3 78 0.0 11 6   97.27   -14 LegendNANA
23:00 -10.2 -13.2 79 0.0 17 6   97.32   -14 LegendNANA

Notes on Data Quality.

Legend

  • E = Estimated
  • M = Missing
  • NA = Not Available*
  • [empty] = Indicates an unobserved value
Date modified: